カタログに戻る

STARLINK-4345

運用中通信SSO
NORAD 53049·PAYLOAD·🇺🇸 United States

打ち上げ Jul 11, 2022 から Vandenberg Space Force Base

Loading…

次のパス (今後24時間)

TLE

最新Source: CelesTrak SupGP

元期: Sep 14, 2026, 21:01 UTC

1 53049C 22077G   26257.87618056  .00086481  00000+0  26846-2 0  2573
2 53049  97.2852  72.7368 0001556  94.3794 323.4946 15.33395201    16

AllMySatでSTARLINK-4345をリアルタイム追跡

Download on the App Store